Weather History for Annette Island, AK

Change the Weather History Date:

Friday, April 12, 2013

  Actual Average Record
Temperature  
Mean Temperature 38 °F 44 °F  
Max Temperature 42 °F 50 °F 62 °F (1963)
Min Temperature 34 °F 38 °F 23 °F (1966)
Degree Days  
Heating Degree Days 27 21  
Month to date heating degree days 267 267  
Since 1 July heating degree days 5605 5589  
Cooling Degree Days 0    
Month to date cooling degree days 0  
Year to date cooling degree days 0  
Moisture  
Dew Point 35 °F    
Average Humidity 0    
Maximum Humidity 0    
Minimum Humidity 0    
Precipitation  
Precipitation 0.97 in 0.23 in 1.06 in (2013)
Month to date precipitation 2.58 2.98  
Year to date precipitation 28.50 29.07  
Snow  
Snow T in 0.00 in 4.70 in (1968)
Month to date snowfall T 0.9  
Since 1 July snowfall 12.8 34.3  
Snow Depth 0.00 in    
Sea Level Pressure  
Sea Level Pressure 29.53 in    
Wind  
Wind Speed 16 mph (ESE)    
Max Wind Speed 24 mph    
Max Gust Speed 38 mph    
Visibility 6 miles    
Events Rain , Snow    
T = Trace of Precipitation, MM = Missing Value Source: NWS Daily Summary

Daily Weather History Graph

Daily Weather History Graph

Search for Another Location

Airport:

Trip Planner

Search our weather history database for the weather conditions in past years. The results will help you decide how hot, cold, wet, or windy it might be!

Date:

Astronomy

Apr. 12, 2013 Rise Set
Actual Time 5:49 AM AKDT 7:45 PM AKDT
Civil Twilight 5:10 AM AKDT 8:24 PM AKDT
Nautical Twilight 4:22 AM AKDT 9:13 PM AKDT
Astronomical Twilight 3:26 AM AKDT 10:10 PM AKDT
Moon 6:41 AM AKDT (4/12) 10:49 PM AKDT (4/12)
Length of Visible Light 15h 13m
Length of Day
13h 56m
Waxing Crescent, 6% of the Moon is Illuminated
Apr 12
Waxing Crescent
Apr 18
First Quarter
Apr 25
Full
May 2
Last Quarter
May 9
New

Hourly Weather History & Observations

Time (AKDT) Temp. Windchill Dew Point Humidity Pressure Visibility Wind Dir Wind Speed Gust Speed Precip Events Conditions
12:53 AM 37.0 °F 26.4 °F 34.0 °F 89% 29.82 in 9.0 mi SE 20.7 mph 29.9 mph 0.02 in Rain Light Rain
1:53 AM 36.0 °F 25.6 °F 34.0 °F 93% 29.76 in 10.0 mi ESE 18.4 mph 26.5 mph 0.03 in Rain Light Rain
2:53 AM 35.1 °F 23.5 °F 33.1 °F 92% 29.70 in 3.0 mi ESE 21.9 mph 28.8 mph 0.04 in Snow Light Snow
3:44 AM 33.8 °F 22.5 °F 33.8 °F 100% 29.63 in 2.5 mi ESE 19.6 mph 29.9 mph 0.05 in Rain Light Rain
3:53 AM 34.0 °F 23.4 °F 33.1 °F 96% 29.63 in 3.0 mi ESE 17.3 mph 27.6 mph 0.07 in Rain Light Rain
4:37 AM 33.8 °F 23.2 °F 32.0 °F 93% 29.57 in 1.8 mi ESE 17.3 mph 31.1 mph 0.04 in Rain Light Rain
4:53 AM 35.1 °F 24.1 °F 33.1 °F 92% 29.56 in 3.0 mi ESE 19.6 mph 32.2 mph 0.07 in Rain Light Rain
5:05 AM 35.6 °F 25.2 °F 33.8 °F 93% 29.55 in 2.5 mi ESE 18.4 mph 28.8 mph 0.01 in Rain Light Rain
5:25 AM 33.8 °F 22.8 °F 33.8 °F 100% 29.53 in 3.0 mi ESE 18.4 mph 29.9 mph 0.04 in Rain Light Rain
5:41 AM 35.6 °F 24.8 °F 33.8 °F 93% 29.52 in 4.0 mi ESE 19.6 mph 31.1 mph 0.06 in Rain Light Rain
5:53 AM 35.1 °F 23.5 °F 33.1 °F 92% 29.52 in 4.0 mi ESE 21.9 mph 33.4 mph 0.07 in Rain Light Rain
6:42 AM 35.6 °F 25.2 °F 33.8 °F 93% 29.48 in 8.0 mi ESE 18.4 mph 31.1 mph 0.04 in Rain , Snow Light Rain
6:53 AM 36.0 °F 24.7 °F 34.0 °F 93% 29.48 in 7.0 mi ESE 21.9 mph 32.2 mph 0.04 in Rain , Snow Light Rain
7:41 AM 35.6 °F 26.2 °F 33.8 °F 93% 29.47 in 7.0 mi ESE 15.0 mph 26.5 mph 0.03 in Rain , Snow Light Rain
7:53 AM 35.1 °F 25.2 °F 33.1 °F 92% 29.47 in 4.0 mi ESE 16.1 mph 26.5 mph 0.04 in Rain , Snow Light Rain
8:21 AM 35.6 °F 26.2 °F 33.8 °F 93% 29.45 in 2.0 mi ESE 15.0 mph 23.0 mph 0.04 in Rain , Snow Light Rain
8:32 AM 35.6 °F 25.5 °F 33.8 °F 93% 29.45 in 5.0 mi ESE 17.3 mph 24.2 mph 0.04 in Rain , Snow Light Rain
8:53 AM 36.0 °F 27.1 °F 34.0 °F 93% 29.45 in 6.0 mi ESE 13.8 mph 26.5 mph 0.06 in Rain , Snow Light Rain
9:53 AM 37.0 °F 27.0 °F 35.1 °F 93% 29.44 in 9.0 mi ESE 18.4 mph 31.1 mph 0.07 in Rain Light Rain
10:27 AM 37.4 °F 28.5 °F 35.6 °F 93% 29.44 in 9.0 mi ESE 15.0 mph 21.9 mph 0.01 in Rain , Snow Light Rain
10:34 AM 35.6 °F 25.9 °F 33.8 °F 93% 29.44 in 5.0 mi ESE 16.1 mph 26.5 mph 0.01 in Rain , Snow Light Rain
10:53 AM 35.1 °F 26.4 °F 34.0 °F 96% 29.45 in 2.5 mi ESE 12.7 mph 20.7 mph 0.05 in Rain , Snow Light Rain
11:06 AM 35.6 °F 27.1 °F 33.8 °F 93% 29.45 in 3.0 mi ESE 12.7 mph 21.9 mph 0.02 in Rain , Snow Light Rain
11:15 AM 35.6 °F 26.6 °F 33.8 °F 93% 29.45 in 2.0 mi ESE 13.8 mph 21.9 mph 0.04 in Rain , Snow Light Rain
11:29 AM 35.6 °F 25.9 °F 33.8 °F 93% 29.44 in 3.0 mi ESE 16.1 mph 24.2 mph 0.07 in Rain , Snow Light Rain
11:39 AM 35.6 °F 26.2 °F 33.8 °F 93% 29.44 in 1.8 mi ESE 15.0 mph - 0.09 in Rain , Snow Light Rain
11:53 AM 35.1 °F 26.9 °F 33.1 °F 92% 29.46 in 1.5 mi ESE 11.5 mph 17.3 mph 0.15 in Rain , Snow Light Rain
12:27 PM 35.6 °F 28.0 °F 33.8 °F 93% 29.45 in 3.0 mi ESE 10.4 mph 19.6 mph 0.15 in Rain Rain
12:53 PM 37.0 °F 29.8 °F 36.0 °F 96% 29.45 in 8.0 mi East 10.4 mph 18.4 mph 0.17 in Rain Light Rain
1:16 PM 39.2 °F 31.6 °F 37.4 °F 93% 29.45 in 10.0 mi SE 12.7 mph 21.9 mph 0.00 in   Overcast
1:53 PM 39.0 °F 31.8 °F 37.0 °F 93% 29.47 in 10.0 mi ESE 11.5 mph 19.6 mph 0.02 in Rain Light Rain
2:01 PM 39.2 °F 31.6 °F 37.4 °F 93% 29.46 in 10.0 mi East 12.7 mph 19.6 mph 0.00 in Rain Light Rain
2:25 PM 39.2 °F 33.0 °F 37.4 °F 93% 29.47 in 4.0 mi ESE 9.2 mph - 0.02 in Rain Light Rain
2:37 PM 39.2 °F 31.6 °F 37.4 °F 93% 29.46 in 6.0 mi ESE 12.7 mph 20.7 mph 0.02 in Rain Light Rain
2:53 PM 37.9 °F 30.5 °F 36.0 °F 93% 29.48 in 4.0 mi ESE 11.5 mph 20.7 mph 0.04 in Rain Light Rain
3:53 PM 37.9 °F 32.7 °F 35.1 °F 89% 29.50 in 3.0 mi ESE 6.9 mph - 0.07 in Rain Rain
4:53 PM 39.0 °F 33.4 °F 36.0 °F 89% 29.52 in 10.0 mi ESE 8.1 mph - 0.07 in Rain Light Rain
5:19 PM 39.2 °F 34.2 °F 37.4 °F 93% 29.52 in 10.0 mi ESE 6.9 mph - 0.00 in   Overcast
5:53 PM 41.0 °F 38.0 °F 37.0 °F 86% 29.55 in 10.0 mi ESE 4.6 mph - 0.00 in   Overcast
6:18 PM 41.0 °F 38.0 °F 35.6 °F 81% 29.55 in 10.0 mi East 4.6 mph - 0.00 in Rain Light Rain
6:53 PM 39.0 °F - 36.0 °F 89% 29.57 in 10.0 mi Calm Calm - 0.00 in Rain Light Rain
7:53 PM 37.9 °F 35.5 °F 37.0 °F 97% 29.60 in 10.0 mi NNW 3.5 mph - 0.00 in   Mostly Cloudy
8:53 PM 37.0 °F 34.5 °F 35.1 °F 93% 29.64 in 10.0 mi NNE 3.5 mph - N/A   Scattered Clouds
9:53 PM 36.0 °F 32.1 °F 34.0 °F 93% 29.67 in 10.0 mi NNW 4.6 mph - N/A   Partly Cloudy
10:53 PM 37.0 °F 33.3 °F 36.0 °F 96% 29.70 in 10.0 mi NNW 4.6 mph - N/A   Overcast
11:53 PM 37.9 °F 32.1 °F 36.0 °F 93% 29.72 in 10.0 mi NNW 8.1 mph - N/A   Clear